DELTA 1 DEB

Satellite information

Favourite Embed

Satellite Type and Status

DEBRISIN ORBIT

Key statistics

Satellite DELTA 1 DEB at a glance.

Uptime

19030

Days in orbit

Revolutions

≈ 13.5

Per day

Orbit

SSO

Sun Synchronous Orbit

Inclination

101.7

Latest

Satellite identification and parameters

Extended collection of information and parameters for DELTA 1 DEB.

Object identification

Identified? True

Debris? True

Object name: DELTA 1 DEB

International designator: 1973-086AJ

Object number (NORAD): 7042

Object ID (CCSDS): 7042

Country: UNITED STATES OF AMERICA (US)

Current information (Y/N): Y

RCS size: SMALL

Orbital parameters

Period: 106.823 minutes

Inclination: 101.7396 deg

SMA: 7457.695 km

Apoapsis: 1314.844 km

Periapsis: 844.277 km

RAAN: 198.001 deg

Eccentricy: 0.03154905

Argument of periapsis: 144.713 deg

Mean anomaly: 217.5331 deg

Mean motion: 13.48018357 rev/day

Mean motion (dot): 0.00000725 rev/day2

B* drag term: 0.00093472926 1/REarth

Two-line elements (TLE)

Creation date: Dec. 12, 2025, 10:14 a.m.

Reference frame: TEME

Reference center: EARTH

Epoch: Dec. 12, 2025, 1:25 a.m. UTC

TLE line 0: 0 DELTA 1 DEB

TLE line 1: 1 07042U 73086AJ 25346.05940510 .00000725 00000-0 93473-3 0 9994

TLE line 2: 2 07042 101.7396 198.0010 0315491 144.7130 217.5331 13.48018357537023

Live tracking on map

Real-time ground track for satellite DELTA 1 DEB.

In-orbit conjunctions

A list of the most updated potential collisions computed for object DELTA 1 DEB.

Target Orbit TCA Probability of collision Miss distance Type
CZ-6A DEB SSO 2025-02-11 23:42:48 0.0001324975 256.0 (m) DEBRIS
COSMOS 1417 DEB LEO 2024-11-11 20:26:56 0.0001283272 326.0 (m) DEBRIS

Associated space launch

Meteorological satellite using radiometric imaging

DELTA 1 DEB was lifted into orbit during the mission ‘Delta 0300 | NOAA 3’, on board a Delta 0300 space rocket.

The launch took place on Nov. 6, 1973, 5:02 p.m. from Space Launch Complex 2W.

For more information about the launch, click the button.

Launch to space Delta 0300 | NOAA 3
Delta 0300 | NOAA 3

Agency: N/A

Status: Launch Successful

Launch date: Nov. 6, 1973, 5:02 p.m. UTC

Rocket: Delta 0300

Launch pad: Space Launch Complex 2W

Location: Vandenberg SFB, CA, USA

...

Latest news about this satellite

There are no fresh news available about this satellite. Check back as we update our databases every day.


Newsletter sign-up

Weekly statistics, charts and insights to help you stay on top of the space industry.